Weather History for Bastrop, LA

Change the Weather History Date:

Tuesday, February 5, 2013

  Actual Average (KMLU) Record (KMLU)
Temperature  
Mean Temperature 55 °F 48 °F  
Max Temperature 65 °F 60 °F 81 °F (1957)
Min Temperature 45 °F 37 °F 16 °F (1996)
Degree Days  
Heating Degree Days 10 17  
Month to date heating degree days 85  
Since 1 July heating degree days 1566  
Cooling Degree Days 0 0  
Month to date cooling degree days 0  
Year to date cooling degree days 4  
Growing Degree Days 5 (Base 50)    
Moisture  
Dew Point 50 °F    
Average Humidity 78    
Maximum Humidity 93    
Minimum Humidity 65    
Precipitation  
Precipitation 0.00 in 0.16 in 1.85 in (1983)
Month to date precipitation 0.80  
Year to date precipitation 5.81  
Snow  
Snow 0.00 in - - ()
Month to date snowfall  
Since 1 July snowfall  
Snow Depth -    
Sea Level Pressure  
Sea Level Pressure 30.01 in    
Wind  
Wind Speed 0 mph (North)    
Max Wind Speed 0 mph    
Max Gust Speed -    
Visibility 8 miles    
Events Fog , Rain    
T = Trace of Precipitation, MM = Missing Value Source: NWS Daily Summary

Daily Weather History Graph

Daily Weather History Graph

Search for Another Location

Airport:

Trip Planner

Search our weather history database for the weather conditions in past years. The results will help you decide how hot, cold, wet, or windy it might be!

Date:

Astronomy

Feb. 05, 2013 Rise Set
Actual Time 6:59 AM CST 5:44 PM CST
Civil Twilight 6:33 AM CST 6:09 PM CST
Nautical Twilight 6:04 AM CST 6:39 PM CST
Astronomical Twilight 5:35 AM CST 7:08 PM CST
Moon 2:35 AM CST (2/5) 1:08 PM CST (2/5)
Length of Visible Light 11h 36m
Length of Day
10h 45m
Waning Crescent, 26% of the Moon is Illuminated
Feb 5
Waning Crescent
Feb 10
New
Feb 17
First Quarter
Feb 25
Full
Mar 4
Last Quarter

Hourly Weather History & Observations

Time (CST) Temp. Dew Point Humidity Pressure Visibility Wind Dir Wind Speed Gust Speed Precip Events Conditions
12:15 AM 55.6 °F 46.4 °F 71% 29.94 in 10.0 mi Calm Calm - N/A   Mostly Cloudy
12:35 AM 55.4 °F 46.4 °F 72% 29.94 in 10.0 mi Calm Calm - N/A   Mostly Cloudy
12:55 AM 54.7 °F 46.4 °F 74% 29.94 in 10.0 mi Calm Calm - N/A   Scattered Clouds
1:15 AM 55.4 °F 46.8 °F 73% 29.94 in 10.0 mi Calm Calm - N/A   Mostly Cloudy
1:35 AM 55.8 °F 46.9 °F 72% 29.94 in 10.0 mi Calm Calm - N/A   Overcast
1:55 AM 55.4 °F 47.3 °F 74% 29.94 in 10.0 mi Calm Calm - N/A   Overcast
2:15 AM 55.4 °F 47.5 °F 75% 29.94 in 10.0 mi Calm Calm - N/A   Overcast
2:35 AM 55.4 °F 48.0 °F 76% 29.94 in 10.0 mi Calm Calm - N/A   Overcast
2:55 AM 55.4 °F 48.4 °F 77% 29.94 in 10.0 mi Calm Calm - N/A   Overcast
3:15 AM 55.4 °F 48.2 °F 77% 29.94 in 10.0 mi Calm Calm - N/A   Overcast
3:35 AM 55.6 °F 48.2 °F 76% 29.94 in 10.0 mi Calm Calm - N/A   Overcast
3:55 AM 55.6 °F 48.6 °F 77% 29.94 in 10.0 mi Calm Calm - N/A Rain Light Rain
4:15 AM 55.4 °F 49.5 °F 80% 29.95 in 10.0 mi Calm Calm - N/A   Overcast
4:35 AM 55.2 °F 48.9 °F 79% 29.95 in 10.0 mi Calm Calm - N/A   Overcast
4:55 AM 55.0 °F 49.3 °F 81% 29.96 in 10.0 mi Calm Calm - N/A   Overcast
5:15 AM 55.4 °F 48.6 °F 78% 29.96 in 10.0 mi Calm Calm - N/A   Overcast
5:35 AM 55.0 °F 49.1 °F 80% 29.96 in 10.0 mi Calm Calm - N/A   Overcast
5:55 AM 55.0 °F 49.1 °F 80% 29.97 in 10.0 mi Calm Calm - N/A   Overcast
6:15 AM 54.9 °F 49.1 °F 81% 29.98 in 10.0 mi Calm Calm - N/A   Overcast
6:35 AM 54.9 °F 49.3 °F 81% 29.98 in 10.0 mi Calm Calm - N/A   Overcast
6:55 AM 55.2 °F 49.3 °F 80% 29.99 in 10.0 mi Calm Calm - N/A   Overcast
7:15 AM 55.4 °F 49.3 °F 80% 29.99 in 10.0 mi Calm Calm - N/A   Overcast
7:35 AM 55.4 °F 49.3 °F 80% 30.00 in 10.0 mi Calm Calm - N/A   Overcast
7:55 AM 55.6 °F 49.1 °F 79% 30.00 in 10.0 mi Calm Calm - N/A   Overcast
8:15 AM 56.3 °F 49.1 °F 77% 30.01 in 10.0 mi Calm Calm - N/A   Overcast
8:35 AM 56.8 °F 49.1 °F 75% 30.02 in 10.0 mi Calm Calm - N/A   Overcast
9:15 AM 57.6 °F 49.5 °F 74% 30.02 in 10.0 mi Calm Calm - N/A   Overcast
9:35 AM 59.4 °F 50.4 °F 72% 30.03 in 10.0 mi Calm Calm - N/A   Overcast
9:55 AM 59.4 °F 50.9 °F 74% 30.04 in 10.0 mi Calm Calm - N/A   Overcast
10:15 AM 60.4 °F 51.1 °F 71% 30.04 in 10.0 mi Calm Calm - N/A   Overcast
10:35 AM 61.7 °F 51.1 °F 68% 30.05 in 10.0 mi Calm Calm - N/A   Overcast
10:55 AM 62.8 °F 51.4 °F 66% 30.06 in 10.0 mi Calm Calm - N/A   Overcast
11:15 AM 62.1 °F 51.8 °F 69% 30.05 in 10.0 mi Calm Calm - N/A   Overcast
11:35 AM 61.9 °F 52.0 °F 70% 30.05 in 7.0 mi Calm Calm - N/A   Overcast
11:55 AM 63.0 °F 52.2 °F 68% 30.04 in 10.0 mi Calm Calm - N/A   Overcast
12:15 PM 64.2 °F 52.3 °F 65% 30.04 in 10.0 mi Calm Calm - N/A   Overcast
12:35 PM 63.9 °F 52.3 °F 66% 30.03 in 10.0 mi Calm Calm - N/A   Overcast
12:55 PM 64.0 °F 52.5 °F 66% 30.03 in 10.0 mi Calm Calm - N/A   Overcast
1:15 PM 64.4 °F 52.5 °F 65% 30.02 in 10.0 mi Calm Calm - N/A   Overcast
1:35 PM 64.2 °F 52.9 °F 67% 30.02 in 10.0 mi Calm Calm - N/A   Overcast
1:55 PM 63.9 °F 52.9 °F 67% 30.01 in 10.0 mi Calm Calm - N/A   Overcast
2:15 PM 64.6 °F 53.2 °F 67% 30.01 in 10.0 mi Calm Calm - N/A   Overcast
2:35 PM 64.8 °F 53.1 °F 66% 30.01 in 10.0 mi Calm Calm - N/A   Overcast
2:55 PM 64.2 °F 52.9 °F 67% 30.01 in 10.0 mi Calm Calm - N/A   Overcast
3:15 PM 64.8 °F 53.1 °F 66% 30.01 in 10.0 mi Calm Calm - N/A   Overcast
3:35 PM 64.9 °F 53.2 °F 66% 30.00 in 10.0 mi Calm Calm - N/A   Overcast
3:55 PM 65.3 °F 53.2 °F 65% 30.00 in 10.0 mi Calm Calm - N/A   Overcast
4:15 PM 64.4 °F 53.6 °F 68% 30.00 in 10.0 mi Calm Calm - N/A   Overcast
4:35 PM 64.4 °F 53.6 °F 68% 30.00 in 10.0 mi Calm Calm - N/A   Overcast
4:55 PM 63.3 °F 53.6 °F 71% 30.00 in 10.0 mi Calm Calm - N/A   Scattered Clouds
5:15 PM 61.9 °F 53.6 °F 74% 30.00 in 10.0 mi Calm Calm - N/A   Clear
5:35 PM 59.5 °F 53.4 °F 80% 30.00 in 7.0 mi Calm Calm - N/A   Clear
5:55 PM 56.7 °F 52.7 °F 87% 30.01 in 7.0 mi Calm Calm - N/A   Clear
6:15 PM 54.9 °F 51.4 °F 88% 30.02 in 5.0 mi Calm Calm - N/A   Clear
6:35 PM 54.0 °F 50.9 °F 89% 30.02 in 5.0 mi Calm Calm - N/A   Clear
6:55 PM 53.1 °F 50.4 °F 91% 30.03 in 4.0 mi Calm Calm - N/A   Clear
7:15 PM 51.6 °F 49.1 °F 91% 30.02 in 5.0 mi Calm Calm - N/A   Clear
7:35 PM 50.4 °F 48.0 °F 92% 30.03 in 2.5 mi Calm Calm - N/A   Clear
7:55 PM 49.5 °F 47.3 °F 92% 30.04 in 2.0 mi Calm Calm - N/A   Clear
8:15 PM 50.2 °F 48.2 °F 93% 30.04 in 2.0 mi Calm Calm - N/A   Clear
8:35 PM 49.6 °F 47.7 °F 93% 30.05 in 1.0 mi Calm Calm - N/A   Mist
8:55 PM 48.7 °F 46.8 °F 93% 30.06 in 1.8 mi Calm Calm - N/A   Mist
9:15 PM 48.9 °F 47.1 °F 93% 30.06 in 2.5 mi Calm Calm - N/A   Clear
9:35 PM 47.7 °F 45.5 °F 92% 30.07 in 1.5 mi Calm Calm - N/A   Mist
10:15 PM 46.4 °F 44.4 °F 93% 30.07 in 1.8 mi Calm Calm - N/A   Mist
10:35 PM 48.7 °F 46.9 °F 93% 30.07 in 1.8 mi Calm Calm - N/A   Mist
10:55 PM 48.0 °F 46.0 °F 93% 30.08 in 1.2 mi Calm Calm - N/A   Mist
11:15 PM 48.4 °F 46.4 °F 93% 30.07 in 0.8 mi Calm Calm - N/A   Mist
11:35 PM 45.7 °F 43.9 °F 93% 30.07 in 0.5 mi Calm Calm - N/A Fog Fog
11:55 PM 46.6 °F 44.6 °F 93% 30.07 in 0.2 mi Calm Calm - N/A Fog Fog